Tracking 29493 objects as of 8-Sep-2024
HD Live streaming from Space Station
objects crossing your sky now

STARLINK-31704

Track STARLINK-31704 now!
10-day predictions
STARLINK-31704 is classified as:


NORAD ID: 59586
Int'l Code: 2024-076Y
Perigee: 435.2 km
Apogee: 437.4 km
Inclination: 43.0 °
Period: 93.2 minutes
Semi major axis: 6807 km
RCS: Unknown
Launch date: April 23, 2024
Source: United States (US)
Launch site: AIR FORCE EASTERN TEST RANGE (AFETR)
Your satellite tracking list
Your tracking list is empty




NASA's NSSDC Master Catalog

Two Line Element Set (TLE):
1 59586U 24076Y   24252.58334491 -.01555427  00000-0 -34851-1 0  9997
2 59586  42.9996 196.5975 0001617 266.2862  14.8653 15.45741133 23021
Source of the keplerian elements: AFSPC